Flag for U.S.A. Weather past 2 weeks in Little Rock, Arkansas, U.S.A.

Now
75 °F

Passing clouds.


Feels Like: 77 °F
Forecast: 52 / 76 °F
Wind: 7 mph from Southeast

Location: Adams Field


UV Index: 5 (Moderate)

Visibility: 10 mi


Pressure: 29.98 "Hg

Humidity: 34%

Dew point: 45 °F

Location of Little RockLocation

Historic Weather in Little Rock

°F

Little Rock temperature yesterday

Maximum temperature yesterday: 81 °F (at 4:53 PM)
Minimum temperature yesterday: 57 °F (at 11:53 PM)
Average temperature yesterday: 69 °F

Past Weeks' High & Low Weather Summary

 TemperatureHumidityPressure
High84 °F (Apr 10, 2:53 PM)100% (Apr 14, 4:01 AM)30.31 "Hg (Apr 14, 4:01 AM)
Low35 °F (Apr 15, 5:53 AM)19% (Apr 9, 4:53 PM)29.67 "Hg (Apr 13, 6:53 PM)
Average62 °F60%30.07 "Hg
* Reported Apr 8 1:53 PM — Apr 23 1:53 PM, Little Rock, Weather by CustomWeather, © 2014

Note: Actual official high and low records may vary slightly from our data, if they occured in-between our weather recording intervals... More about our weather records

Advertising

Historic Weather Conditions — Data for Previous 24 hours

 ConditionsComfort  
Time TempWeatherWind HumidityBarometerVisibility
1:53 PM
Apr 23
75 °FPassing clouds.7 mph34%29.98 "Hg10 mi
12:53 PM74 °FPassing clouds.9 mph36%30.00 "Hg10 mi
11:53 AM71 °FSunny.7 mph38%30.04 "Hg10 mi
10:53 AM69 °FSunny.14 mph39%30.05 "Hg10 mi
9:53 AM66 °FSunny.10 mph47%30.06 "Hg10 mi
8:53 AM62 °FSunny.12 mph56%30.06 "Hg10 mi
7:53 AM57 °FPassing clouds.No wind74%30.05 "Hg10 mi
6:53 AM53 °FPassing clouds.3 mph74%30.03 "Hg10 mi
5:53 AM51 °FClear.No wind74%30.01 "Hg10 mi
4:53 AM54 °FClear.No wind86%30.00 "Hg10 mi
3:53 AM52 °FClear.No wind86%29.98 "Hg10 mi
2:53 AM55 °FClear.No wind83%29.97 "Hg10 mi
1:53 AM56 °FClear.No wind81%29.97 "Hg10 mi
12:53 AM58 °FClear.No wind72%29.98 "Hg10 mi
11:53 PM
Apr 22
57 °FClear.5 mph78%29.97 "Hg10 mi
10:53 PM62 °FClear.No wind56%29.96 "Hg10 mi
9:53 PM64 °FClear.No wind52%29.95 "Hg10 mi
8:53 PM67 °FClear.3 mph44%29.94 "Hg10 mi
7:53 PM72 °FSunny.6 mph29%29.92 "Hg10 mi
6:53 PM75 °FSunny.8 mph25%29.91 "Hg10 mi
5:53 PM79 °FSunny.7 mph24%29.91 "Hg10 mi
4:53 PM81 °FPassing clouds.3 mph23%29.92 "Hg10 mi
3:53 PM80 °FPassing clouds.8 mph24%29.93 "Hg10 mi
Weather by CustomWeather, © 2014

See weather overview